Location: Chiroubles
(46.1812°N, 4.6660°E)
Time: 03:07:49
(UTC+00:00)

Explorer 7 - Pass Details

Date: 03 December 2020
Orbit: 484 x 678 km, 50.3° (Epoch: 25 January)

Event Time Altitude Azimuth Distance (km) Brightness Sun altitude
Exits shadow 03:23:40 11° 80° (E) 1,795 10.1 -37.6°
Drops below altitude 10° 03:23:46 10° 81° (E) 1,831 10.2 -37.6°
Sets 03:26:00 0° 87° (E) 2,691 11.3 -37.2°
